Weather History for Orange, MA

Change the Weather History Date:

Saturday, January 5, 2013

  Actual Average Record
Temperature  
Mean Temperature 28 °F -  
Max Temperature 37 °F 31 °F 55 °F (2007)
Min Temperature 18 °F 14 °F 1 °F (1999)
Degree Days  
Heating Degree Days 38    
Moisture  
Dew Point 18 °F    
Average Humidity 61    
Maximum Humidity 88    
Minimum Humidity 39    
Precipitation  
Precipitation 0.00 in - - ()
Sea Level Pressure  
Sea Level Pressure 30.11 in    
Wind  
Wind Speed 10 mph (WNW)    
Max Wind Speed 20 mph    
Max Gust Speed 30 mph    
Visibility 10 miles    
Events      
Averages and records for this station are not official NWS values.
T = Trace of Precipitation, MM = Missing Value Source: NWS Daily Summary

Daily Weather History Graph

Daily Weather History Graph

Search for Another Location

Airport:

Trip Planner

Search our weather history database for the weather conditions in past years. The results will help you decide how hot, cold, wet, or windy it might be!

Date:

Astronomy

Jan. 05, 2013 Rise Set
Actual Time 7:19 AM EST 4:30 PM EST
Civil Twilight 6:47 AM EST 5:02 PM EST
Nautical Twilight 6:12 AM EST 5:37 PM EST
Astronomical Twilight 5:37 AM EST 6:11 PM EST
Moon 12:17 AM EST (1/5) 11:22 AM EST (1/5)
Length of Visible Light 10h 15m
Length of Day
9h 11m
Last Quarter, 44% of the Moon is Illuminated
Jan 5
Last Quarter
Jan 11
New
Jan 18
First Quarter
Jan 26
Full
Feb 3
Last Quarter

Hourly Weather History & Observations

Time (EST) Temp. Windchill Dew Point Humidity Pressure Visibility Wind Dir Wind Speed Gust Speed Precip Events Conditions
12:52 AM 33.1 °F 23.0 °F 19.0 °F 56% 29.86 in 10.0 mi WNW 15.0 mph 24.2 mph N/A   Overcast
1:52 AM 33.1 °F 21.5 °F 19.9 °F 59% 29.89 in 10.0 mi WNW 19.6 mph 28.8 mph N/A   Overcast
2:52 AM 33.1 °F 23.9 °F 21.9 °F 64% 29.89 in 10.0 mi West 12.7 mph 29.9 mph N/A   Overcast
3:52 AM 33.1 °F 23.9 °F 21.0 °F 61% 29.91 in 10.0 mi West 12.7 mph 20.7 mph N/A   Mostly Cloudy
5:52 AM 33.1 °F 25.5 °F 21.9 °F 64% 29.97 in 10.0 mi West 9.2 mph - N/A   Mostly Cloudy
6:52 AM 33.1 °F 25.5 °F 21.0 °F 61% 30.01 in 10.0 mi WNW 9.2 mph - N/A   Scattered Clouds
7:52 AM 34.0 °F - 21.0 °F 59% 30.05 in 10.0 mi Calm Calm - N/A   Mostly Cloudy
8:52 AM 34.0 °F 28.8 °F 19.9 °F 56% 30.09 in 10.0 mi West 5.8 mph - N/A   Scattered Clouds
9:52 AM 36.0 °F 28.5 °F 19.9 °F 52% 30.14 in 10.0 mi WNW 10.4 mph - N/A   Mostly Cloudy
10:52 AM 37.0 °F 27.7 °F 21.0 °F 52% 30.15 in 10.0 mi WNW 16.1 mph 23.0 mph N/A   Partly Cloudy
11:52 AM 37.0 °F 28.5 °F 19.0 °F 48% 30.17 in 10.0 mi WNW 13.8 mph 25.3 mph N/A   Scattered Clouds
12:52 PM 37.9 °F 28.9 °F 17.1 °F 43% 30.17 in 10.0 mi NW 16.1 mph 21.9 mph N/A   Partly Cloudy
1:52 PM 37.0 °F 29.8 °F 16.0 °F 42% 30.16 in 10.0 mi WNW 10.4 mph - N/A   Clear
2:52 PM 37.9 °F 30.0 °F 15.1 °F 39% 30.15 in 10.0 mi NNW 12.7 mph - N/A   Clear
3:52 PM 36.0 °F - 14.0 °F 41% 30.19 in 10.0 mi Calm Calm - N/A   Clear
4:52 PM 33.1 °F 30.0 °F 12.9 °F 43% 30.21 in 10.0 mi WSW 3.5 mph - N/A   Clear
5:52 PM 23.0 °F - 15.1 °F 72% 30.23 in 10.0 mi Calm Calm - N/A   Clear
6:52 PM 23.0 °F - 15.1 °F 72% 30.26 in 10.0 mi Calm Calm - N/A   Clear
7:52 PM 21.0 °F 16.2 °F 15.1 °F 78% 30.25 in 10.0 mi ESE 3.5 mph - N/A   Clear
8:52 PM 19.0 °F - 14.0 °F 81% 30.25 in 10.0 mi Calm Calm - N/A   Clear
9:52 PM 18.0 °F - 14.0 °F 84% 30.23 in 10.0 mi Calm Calm - N/A   Clear
10:52 PM 18.0 °F - 14.0 °F 84% 30.21 in 8.0 mi Calm Calm - N/A   Clear
11:52 PM 18.0 °F - 15.1 °F 88% 30.20 in 8.0 mi Calm Calm - N/A   Clear